Preview of NWS' New Version of Forecast
This preview is not operational and should not be used for support decisions.
Latest weather observations around

Houlton, Houlton International Airport (KHUL)

Using English Units (Switch to International System of Units)
Date/ Time (EDT) Wind (mph) Vis. (mi) Weather Sky Cond. Temp (°F) Rel. Humidity Wind Chill (°F) Heat Index (°F) Pressure Precip. (in)
Air Dwpt 6 hour Altimeter (inHg) Sea level (inHg) 1 hr 3 hr 6 hr
Max Min
May 27 22:53 S 6 10 Clear CLR 52 34     50%     30.19 30.2      
May 27 21:53 S 6 10 Clear CLR 54 36     50%     30.19 30.2      
May 27 20:53 SSE 5 10 Clear CLR 55 31     40%     30.18 30.19      
May 27 19:53 SSE 6 10 Clear CLR 58 29     33%     30.17 30.18      
May 27 18:53 SSE 9 10 Clear   60 29     31%     30.17 30.18      
May 27 17:53 SSE 10 10 Clear CLR 63 33     33%     30.18 30.19      
May 27 16:53 S 8 10 Clear CLR 64 37     37%     30.19 30.2      
May 27 15:53 7 10 Clear CLR 65 38     37%     30.2 30.21      
May 27 14:53 SSW 9 10 Clear CLR 64 35     34%     30.22 30.23      
May 27 13:53 SSW 9 10 Clear CLR 64 38     38%     30.23 30.24      
May 27 12:53 E 6 10 Clear CLR 62 39     43%     30.24 30.25      
May 27 11:53 S 8 10 Clear CLR 59 39     47%     30.26 30.27      
May 27 09:53 SSE 3 10 Mostly Clear FEW030 54 40     59%     30.29 30.29      
May 27 08:53 SSW 8 10 Mostly Clear FEW026 52 40     63%     30.29 30.29      
May 27 07:53 SSW 3 10 Clear CLR 48 40     73% 47   30.28 30.29      
May 27 06:53 3 10 Clear CLR 44 39     82% 43   30.27 30.28      
May 27 05:53 WSW 3 10 Clear CLR 36 35     96% 33   30.25 30.26      
May 27 04:53 Calm 10 Clear CLR 36 35     96%     30.24 30.24      
May 27 03:53 Calm 10 Clear CLR 36 35     96%     30.21 30.22      
May 27 02:53 Calm 10 Clear CLR 37 36     96%     30.19 30.2      
May 27 01:53 Calm 10 Clear CLR 38 36     92%     30.16 30.17      
May 27 00:53 Calm 10 Clear CLR 39 36     89%     30.14 30.15      
May 26 23:53 ESE 8 10 Clear CLR 49 37     63% 45   30.12 30.13      
May 26 22:53 Calm 10 Clear CLR 40 38     93%     30.09 30.1      
May 26 21:53 Calm 10 Clear CLR 44 38     79%     30.06 30.07      
May 26 20:53 Calm 10 Clear CLR 50 39     66%     30.02 30.03      
May 26 19:53 N 6 10 Clear CLR 56 35     45%     29.98 29.98      
May 26 18:53 N 11 10 Clear CLR 63 33     33%     29.94 29.94      
May 26 17:53 N 13 10 Clear CLR 64 33     31%     29.9 29.91      
May 26 16:53 N 14 10 Clear CLR 65 35     33%     29.87 29.87      
May 26 14:53 NNW 13 10 Clear CLR 66 36     33%     29.8 29.8      
May 26 13:53 N 14 10 Clear CLR 67 42     40%     29.77 29.77      
May 26 12:53 N 13 10 Mostly Clear FEW041 65 49     56%     29.76 29.75      
May 26 11:53 N 16 10 Clear CLR 64 48     56%     29.74 29.74      
May 26 10:53 N 16 10 Clear CLR 64 52     65%     29.71 29.71      
May 26 10:30 NE 7 10 Mostly Cloudy SCT009 BKN100 62 56     80%     29.71        
May 26 10:26 NNE 7 10 Mostly Cloudy BKN010 BKN100 62 57     84%     29.7        
May 26 09:53 NNE 8 10 Cloudy OVC008 59 57     93%     29.69 29.69      
May 26 09:08 N 11 10 Cloudy OVC008 60 58     93%     29.67        
May 26 08:53 N 9 10 Cloudy OVC010 61 58     90%     29.66 29.66      
May 26 08:25 NNW 8 10 Cloudy OVC014 61 57     87%     29.65        
May 26 07:53 NNW 6 10 Cloudy BKN018 BKN080 OVC110 61 57     87%     29.63 29.63      
May 26 06:53 NW 5 10 Cloudy FEW016 OVC110 62        %     29.61 29.61      
May 26 05:53 WNW 3 10 Cloudy OVC060 62 60     93%     29.6 29.59      
May 26 04:53 SW 5 10 Mostly Cloudy FEW020 BKN110 61 60     97%     29.56 29.56      
May 26 04:49 SW 5 10 Mostly Cloudy SCT020 BKN110 61 61     100%     29.56        
May 26 04:24 Calm 10 Cloudy BKN021 OVC100 61 60     97%     29.55        
May 26 03:53 Calm 10 Cloudy SCT085 OVC110 61 60     97%     29.55 29.54      
May 26 02:53 SW 6 10 Cloudy FEW060 BKN095 OVC110 62 59     90%     29.54 29.53      
May 26 01:53 SSW 6 10 Mostly Clear FEW060 61 60     97%     29.55 29.55 0   0
May 26 00:53 S 7 10 Cloudy FEW050 SCT090 OVC110 62 60     93%     29.56 29.55 0    
May 25 23:53 Calm 6 Fog/Mist BKN043 OVC055 61 60     97%     29.57 29.57      
May 25 22:53 SSW 3 10 Mostly Cloudy BKN060 61 60     97%     29.56 29.56      
May 25 21:53 SSW 5 6 Fog/Mist SCT055 BKN070 60 60     100%     29.57 29.57      
May 25 20:53 Calm 6 Fog/Mist SCT100 61 60     97%     29.56 29.56      
May 25 19:53 SSE 5 8 Mostly Cloudy SCT090 BKN110 62 61     96%     29.56 29.56 0   0
May 25 18:45 NE 6 10 Cloudy FEW036 BKN090 OVC110 63 61     93%     29.55   0    
May 25 18:37 E 3 2 Thunderstorms and Rain and Fog/Mist SCT037 BKN070 OVC110 63 61     93%     29.54   0    
May 25 18:26 NW 5 8 Thunderstorms and Rain FEW070 BKN090 BKN110 63 60     90%     29.55   0    
May 25 17:53 ENE 8 10 Mostly Cloudy FEW060 SCT090 BKN110 65 59     81%     29.5 29.51 0    
May 25 17:40 NNW 14 10 Mostly Cloudy FEW040 FEW065 BKN090 65 60     84%     29.55   0    
Notice The following observation data may not be complete
May 25 17:27 NNE 14 7 Light Rain FEW039 SCT065 BKN095   60      %     29.5   0    
May 25 17:03   8 Thunderstorms and Rain SCT085 OVC110 70 60     71%     29.49   0    
May 25 16:53 NE 10 10 Light Rain BKN085 BKN110 73 59     61%   73 29.48 29.48 0 0  
May 25 15:53 N 6 8 Mostly Clear FEW110 81 56     42%   81 29.47 29.47      
May 25 14:53 NNW 3 7 Partly Cloudy SCT095 82 56     41%   82 29.49 29.49      
May 25 13:53 WSW 8 10 Partly Cloudy SCT095 80 55     42%   80 29.51 29.51      
May 25 12:53 SSE 8 10 Partly Cloudy SCT085 75 55     50%   75 29.55 29.54      
May 25 11:53 S 10 10 Partly Cloudy SCT110 69 52     54%     29.59 29.59      
May 25 10:53 Calm 10 Partly Cloudy SCT110 67 51     57%     29.62 29.62      
May 25 09:53 N 3 10 Mostly Cloudy BKN100 63 51     65%     29.66 29.66      
May 25 08:53 SSE 6 10 Clear CLR 57 50     77%     29.65 29.65      
May 25 07:53 SSW 5 10 Clear CLR 53 48     83%     29.68 29.68     0
May 25 06:53 S 6 10 Clear CLR 50 48     93% 48   29.68 29.69      
May 25 04:53 Calm 10 Cloudy OVC100 49 46     90%     29.72 29.73 0 0  
May 25 03:53 SSW 6 10 Light Rain OVC095 48 46     93% 45   29.72 29.72 0    
May 25 02:53 Calm 10 Cloudy OVC090 49 46     90%     29.77 29.78 0    
May 25 01:53 SSW 7 10 Cloudy OVC100 49 46     90% 46   29.8 29.8     0
May 25 00:53 S 7 10 Mostly Cloudy FEW065 BKN110 49 47     93% 46   29.82 29.82 0    
May 11 17:53 NW 13 10 Clear CLR 51 18     27%     29.93 29.94      
Jun 11 08:53   10 Clear CLR 72 59     64%   72 29.75 29.75      
Jun 11 07:53 SSW 10 10 Clear CLR 66 57     73%     29.79 29.78     0
Jun 10 05:53 W 7 10 Clear CLR 48 40     73% 45   29.81 29.81      
Jun 09 13:53 W 5 10 Light Rain OVC080 57 50     77%     29.52 29.52 0   0
Jun 08 19:53 SSW 10 10 Clear CLR 77 52     42%   76 29.79 29.78      
Jun 08 13:53 SW 11 10 Partly Cloudy SCT095 85 49     29%   83 29.83 29.83      
Jun 07 17:53 Calm 9 Mostly Clear FEW100 78 43     29%   77 29.81 29.82      
Jun 07 14:53 Calm 10 Mostly Cloudy BKN110 77 42     29%   76 29.82 29.82      
Jun 06 01:53 NNE 3 10 Clear CLR 43 41     93% 41   30.06 30.07